Back to catalog

PSLV R/B

AliveHEO
NORAD 41385·ROCKET BODY·🇮🇳 India

Launched Mar 10, 2016 from Satish Dhawan Space Centre

Loading…

Next Passes (next 24 hours)

TLE

FreshSource: Space-Track

Epoch: Sep 14, 2026, 01:36 UTC

1 41385U 16015B   26257.06716775  .00011503  00000-0  88504-3 0  9993
2 41385  17.7109 227.8144 5637812 157.0168 243.8014  4.64251098161162

Track PSLV R/B in real time with AllMySat

Download on the App Store